AOBA VELOX-IV

Last updated on Sat Mar 25 2023 00:03:43 GMT+0000 (Coordinated Universal Time)

1 43940U 19003J 23083.29636232 .10066808 22833-5 19110-2 0 9998 2 43940 97.0334 120.6525 0011123 263.7795 96.2234 16.31862145233490

Satellite not in orbit

AOBA VELOX-IV